Location: Stockholm
(59.3293°N, 18.0686°E)
Time: 17:52:23
(UTC+02:00)

Amateur Radio Satellites - All Passes

Search period start: 28 June 2017 17:22
Search period end: 29 June 2017 17:22
Location: Stockholm, 59.3293°N, 18.0686°E

Satellite Date Start Highest point End Downlink Frequencies (MHz)
Time Altitude Azimuth
XW-2A 28 Jun 17:25:06 17:26:42 13° 51° (NE) 17:28:19 145.665 - 145.685
STARS 28 Jun 17:25:32 17:29:03 22° 90° (E) 17:32:33 437.465
UKube-1 28 Jun 17:27:16 17:28:15 11° 322° (NW) 17:29:14 .
AO-7 28 Jun 17:27:39 17:33:23 20° 279° (W) 17:39:11 .
MOZHAYETS 4 28 Jun 17:29:51 17:34:15 45° 297° (WNW) 17:38:37
CUBEBUG 2 28 Jun 17:33:46 17:37:03 19° 48° (NE) 17:40:21 437.445
XW-2F 28 Jun 17:46:31 17:50:21 89° 56° (NE) 17:54:11 145.980 - 146.000
ZACube-1 28 Jun 17:50:18 17:52:21 13° 42° (NE) 17:54:23 437.345
PCSat 28 Jun 17:50:43 17:56:00 47° 21° (NNE) 18:01:15 145.827
XW-2D 28 Jun 17:52:46 17:56:36 76° 256° (WSW) 18:00:27 145.860 - 145.880
UWE-3 28 Jun 18:00:44 18:04:06 20° 50° (NE) 18:07:29 435.000/436.395/437.385
XW-2B 28 Jun 18:01:55 18:05:43 65° 256° (WSW) 18:09:33 145.730 - 145.750
SEEDS 28 Jun 18:02:11 18:05:41 26° 57° (ENE) 18:09:11 437.485
LilacSat-2 28 Jun 18:04:59 18:08:48 58° 258° (WSW) 18:12:38 437.200
HO-68 28 Jun 18:09:20 18:16:27 65° 60° (ENE) 18:23:35 435.675
SO-50 28 Jun 18:13:15 18:17:36 43° 359° (N) 18:21:56 436.795
XW-2C 28 Jun 18:17:45 18:21:28 47° 261° (W) 18:25:11 145.795 - 145.815
CUBESAT XI-V 28 Jun 18:18:56 18:23:30 62° 292° (WNW) 18:28:01 437.345
ITUPSAT 1 28 Jun 18:19:11 18:22:48 22° 312° (NW) 18:26:25 437.325
KAITUO 1B 28 Jun 18:24:02 18:27:43 49° 260° (W) 18:31:24 145.475/437.950
CUTE 1.7 + AOD 2 28 Jun 18:24:56 18:29:03 51° 66° (ENE) 18:33:10 437.475
BEESAT 28 Jun 18:27:10 18:30:34 20° 314° (NW) 18:33:56 436.000
STRAND 1 28 Jun 18:32:21 18:33:38 11° 77° (ENE) 18:34:54 437.568
CUTE-I 28 Jun 18:37:27 18:42:35 46° 261° (W) 18:47:48 437.470
KKS-1 28 Jun 18:40:41 18:45:07 59° 294° (WNW) 18:49:32 437.445
AAUSAT CUBESAT 2 28 Jun 18:43:28 18:47:05 31° 60° (ENE) 18:50:44 437.432
AO-73 28 Jun 18:47:11 18:50:53 25° 54° (NE) 18:54:35 145.935
DOVE 4 28 Jun 18:53:11 18:56:07 18° 275° (W) 18:59:11 437.250
XW-2A 28 Jun 18:55:24 18:58:51 68° 71° (ENE) 19:02:18 145.665 - 145.685
NUDT-PHONESAT 28 Jun 18:55:49 18:59:03 27° 266° (W) 19:02:19 437.300
STARS 28 Jun 19:01:25 19:05:53 73° 290° (WNW) 19:10:19 437.465
RS-15 28 Jun 19:05:44 19:13:44 21° 95° (E) 19:21:45 29.354- 29.394
MOZHAYETS 4 28 Jun 19:08:15 19:10:26 13° 319° (NW) 19:12:36
CUBEBUG 2 28 Jun 19:08:16 19:12:57 70° 69° (ENE) 19:17:44 437.445
Oscar 11 28 Jun 19:10:26 19:14:09 28° 57° (ENE) 19:17:50 .
YUBILEINY 28 Jun 19:21:54 19:26:03 14° 59° (ENE) 19:30:12 435.215
XW-2F 28 Jun 19:22:48 19:25:04 15° 274° (W) 19:27:19 145.980 - 146.000
ZACube-1 28 Jun 19:23:17 19:27:38 44° 63° (ENE) 19:32:00 437.345
XW-2D 28 Jun 19:29:43 19:31:29 13° 276° (W) 19:33:15 145.860 - 145.880
PCSat 28 Jun 19:34:20 19:39:49 78° 225° (SW) 19:45:14 145.827
UWE-3 28 Jun 19:35:16 19:39:56 77° 70° (ENE) 19:44:39 435.000/436.395/437.385
SEEDS 28 Jun 19:36:58 19:41:08 61° 258° (WSW) 19:45:18 437.485
XW-2B 28 Jun 19:39:35 19:40:42 11° 277° (W) 19:41:49 145.730 - 145.750
DELFI C3 28 Jun 19:42:07 19:44:49 18° 53° (NE) 19:47:33 145.870
EO-88 28 Jun 19:53:50 19:56:07 16° 52° (NE) 19:58:24 145.990 - 145.960
SO-50 28 Jun 19:54:11 19:58:40 60° 23° (NNE) 20:03:10 436.795
CUBESAT XI-V 28 Jun 19:57:14 20:00:07 17° 314° (NW) 20:02:59 437.345
HO-68 28 Jun 19:57:46 20:04:34 43° 263° (W) 20:11:26 435.675
CUTE 1.7 + AOD 2 28 Jun 20:01:23 20:05:07 29° 267° (W) 20:08:51 437.475
STRAND 1 28 Jun 20:09:07 20:14:08 48° 99° (E) 20:19:07 437.568
BEESAT 3 28 Jun 20:10:21 20:12:36 15° 117° (ESE) 20:14:52 437.485
KKS-1 28 Jun 20:18:13 20:20:54 16° 315° (NW) 20:23:36 437.445
AAUSAT CUBESAT 2 28 Jun 20:18:26 20:22:26 49° 260° (W) 20:26:28 437.432
AO-73 28 Jun 20:22:08 20:26:44 78° 255° (WSW) 20:31:20 145.935
CUTE-I 28 Jun 20:22:47 20:24:05 11° 283° (WNW) 20:25:22 437.470
ESTCUBE 1 28 Jun 20:26:55 20:27:24 10° 36° (NE) 20:27:52 437.505/2401.250
AO-85 28 Jun 20:27:41 20:31:00 26° 126° (SE) 20:34:17 145.980
XW-2A 28 Jun 20:29:42 20:32:00 17° 271° (W) 20:34:18 145.665 - 145.685
STARS 28 Jun 20:38:32 20:41:36 18° 312° (NW) 20:44:39 437.465
Oscar 11 28 Jun 20:45:44 20:50:03 61° 258° (WSW) 20:54:22 .
CUBEBUG 2 28 Jun 20:46:06 20:50:01 25° 270° (W) 20:54:00 437.445
ZACube-1 28 Jun 20:59:41 21:04:00 39° 264° (W) 21:08:20 437.345
NO-84 28 Jun 21:00:14 21:01:23 11° 133° (SE) 21:02:32 435.350 FM
FO-29 28 Jun 21:03:24 21:09:26 24° 80° (E) 21:15:30 435.910
RS-15 28 Jun 21:11:37 21:23:22 55° 122° (ESE) 21:35:08 29.354- 29.394
YUBILEINY 28 Jun 21:12:17 21:20:28 45° 85° (E) 21:28:42 435.215
UWE-3 28 Jun 21:13:12 21:16:54 23° 272° (W) 21:20:39 435.000/436.395/437.385
DELFI C3 28 Jun 21:15:11 21:19:07 90° 156° (SSE) 21:23:05 145.870
BEESAT 2 28 Jun 21:15:46 21:18:49 21° 122° (ESE) 21:21:55 435.950
SEEDS 28 Jun 21:16:17 21:17:43 11° 279° (W) 21:19:09 437.485
PCSat 28 Jun 21:18:20 21:22:32 23° 247° (WSW) 21:26:43 145.827
TIGRISAT 28 Jun 21:19:58 21:21:43 12° 79° (E) 21:23:27 435.000
O/OREOS (USA 219) 28 Jun 21:20:02 21:24:09 35° 112° (ESE) 21:28:17 437.305
EO-88 28 Jun 21:25:35 21:29:17 83° 70° (ENE) 21:32:59 145.990 - 145.960
SO-50 28 Jun 21:34:46 21:39:10 51° 225° (SW) 21:43:33 436.795
LO-87 28 Jun 21:38:05 21:41:05 25° 59° (ENE) 21:44:07 145.935 - 145.965
SPROUT 28 Jun 21:44:38 21:46:26 12° 43° (NE) 21:48:15 437.525
BEESAT 3 28 Jun 21:45:30 21:49:28 60° 138° (SE) 21:53:29 437.485
PRISM 28 Jun 21:47:50 21:50:30 17° 88° (E) 21:53:10 437.425
VELOX 1 28 Jun 21:48:28 21:50:36 13° 42° (NE) 21:52:44 145.980
STRAND 1 28 Jun 21:48:29 21:53:21 43° 301° (WNW) 21:58:12 437.568
HO-68 28 Jun 21:51:56 21:54:27 12° 288° (WNW) 21:56:58 435.675
ESTCUBE 1 28 Jun 21:59:01 22:03:02 33° 58° (ENE) 22:07:03 437.505/2401.250
AO-73 28 Jun 22:00:50 22:03:43 16° 276° (W) 22:06:37 145.935
UNISAT 6 28 Jun 22:01:42 22:05:35 25° 90° (E) 22:09:24 437.425
AO-85 28 Jun 22:07:04 22:11:02 82° 328° (NNW) 22:15:00 145.980
Oscar 11 28 Jun 22:25:27 22:27:07 12° 279° (W) 22:28:48 .
50 SAT 28 Jun 22:33:35 22:33:46 10° 47° (NE) 22:33:57 437.505
NO-84 28 Jun 22:34:19 22:37:53 30° 154° (SSE) 22:41:39 435.350 FM
M-CUBED/EXP-1 PRIME 28 Jun 22:44:03 22:47:31 39° 107° (ESE) 22:51:14 437.505
FO-29 28 Jun 22:48:00 22:55:47 70° 103° (ESE) 23:03:37 435.910
BEESAT 2 28 Jun 22:52:03 22:56:05 82° 145° (SE) 23:00:12 435.950
DELFI C3 28 Jun 22:52:08 22:54:30 15° 274° (W) 22:56:53 145.870
TIGRISAT 28 Jun 22:54:50 22:59:28 56° 100° (E) 23:04:00 435.000
O/OREOS (USA 219) 28 Jun 22:59:00 23:03:28 54° 314° (NW) 23:07:54 437.305
EO-88 28 Jun 23:01:15 23:03:29 15° 273° (W) 23:05:44 145.990 - 145.960
YUBILEINY 28 Jun 23:08:13 23:17:01 67° 291° (WNW) 23:25:54 435.215
LO-87 28 Jun 23:10:52 23:14:21 48° 260° (W) 23:17:53 145.935 - 145.965
SO-50 28 Jun 23:16:35 23:18:43 13° 246° (WSW) 23:20:51 436.795
SPROUT 28 Jun 23:17:20 23:21:25 45° 64° (ENE) 23:25:33 437.525
VELOX 1 28 Jun 23:21:55 23:26:09 48° 64° (ENE) 23:30:25 145.980
PRISM 28 Jun 23:22:15 23:26:23 90° 288° (WNW) 23:30:31 437.425
RS-15 28 Jun 23:23:05 23:35:31 83° 331° (NNW) 23:47:53 29.354- 29.394
BEESAT 3 28 Jun 23:23:16 23:27:12 49° 340° (NNW) 23:31:10 437.485
STRAND 1 28 Jun 23:28:40 23:31:25 15° 323° (NW) 23:34:10 437.568
DX 1 28 Jun 23:31:05 23:34:48 28° 56° (NE) 23:38:31 434.975-435.025
ESTCUBE 1 28 Jun 23:35:19 23:39:43 52° 259° (W) 23:44:08 437.505/2401.250
UNISAT 6 28 Jun 23:38:04 23:42:45 69° 291° (WNW) 23:47:21 437.425
UKube-1 28 Jun 23:41:20 23:44:54 26° 55° (NE) 23:48:30 .
POLYITAN 1 28 Jun 23:45:41 23:48:53 20° 89° (E) 23:52:03 437.675
AO-85 28 Jun 23:48:06 23:51:49 39° 351° (N) 23:55:37 145.980
AIST 2D 28 Jun 23:48:48 23:52:01 32° 96° (E) 23:55:11 435.315
QB50P2 28 Jun 23:56:30 00:00:06 25° 92° (E) 00:03:41 145.880/145.840
50 SAT 29 Jun 00:02:32 00:05:49 49° 67° (ENE) 00:09:07 437.505
NO-84 29 Jun 00:10:55 00:14:59 47° 175° (S) 00:19:11 435.350 FM
M-CUBED/EXP-1 PRIME 29 Jun 00:18:41 00:21:59 35° 305° (NW) 00:25:30 437.505
EO-79 29 Jun 00:19:35 00:23:34 35° 96° (E) 00:27:30 145.935-145.965
DUCHIFAT 1 29 Jun 00:29:24 00:33:22 36° 96° (E) 00:37:18 145.980
BEESAT 2 29 Jun 00:30:16 00:34:10 43° 346° (NNW) 00:38:06 435.950
TIGRISAT 29 Jun 00:31:48 00:36:00 33° 302° (WNW) 00:40:07 435.000
FO-29 29 Jun 00:33:19 00:40:32 46° 305° (NW) 00:47:55 435.910
NANOSAT C BR1 29 Jun 00:39:47 00:43:57 47° 100° (E) 00:48:04 145.865
O/OREOS (USA 219) 29 Jun 00:40:17 00:43:48 22° 338° (NNW) 00:47:19 437.305
ITUPSAT 1 29 Jun 00:43:03 00:46:26 19° 46° (NE) 00:49:49 437.325
BEESAT 29 Jun 00:50:25 00:53:59 21° 48° (NE) 00:57:33 436.000
SPROUT 29 Jun 00:53:33 00:57:28 34° 264° (W) 01:01:26 437.525
Gurwin Techsat 1B 29 Jun 00:55:01 00:56:10 11° 77° (ENE) 00:57:18 435.225
PRISM 29 Jun 00:58:14 01:01:12 20° 309° (NW) 01:04:10 437.425
VELOX 1 29 Jun 00:58:48 01:02:47 33° 264° (W) 01:06:48 145.980
BEESAT 3 29 Jun 01:01:37 01:05:25 37° 3° (N) 01:09:14 437.485
DX 1 29 Jun 01:06:28 01:10:45 61° 256° (WSW) 01:15:05 434.975-435.025
YUBILEINY 29 Jun 01:08:28 01:15:47 28° 319° (NW) 01:23:09 435.215
Oscar 19 29 Jun 01:11:38 01:15:16 19° 86° (E) 01:18:54 437.125/150
UNISAT 6 29 Jun 01:15:32 01:18:45 19° 313° (NW) 01:21:56 437.425
UKube-1 29 Jun 01:16:21 01:20:39 67° 256° (WSW) 01:24:58 .
ESTCUBE 1 29 Jun 01:16:41 01:17:36 11° 280° (W) 01:18:31 437.505/2401.250
POLYITAN 1 29 Jun 01:20:52 01:25:11 79° 292° (WNW) 01:29:29 437.675
AIST 2D 29 Jun 01:22:02 01:25:15 34° 296° (WNW) 01:28:26 435.315
BUGSAT 1 29 Jun 01:25:25 01:29:29 41° 98° (E) 01:33:31 437.445
MOZHAYETS 4 29 Jun 01:27:32 01:31:14 24° 53° (NE) 01:34:57
AO-85 29 Jun 01:29:04 01:32:52 43° 15° (NNE) 01:36:47 145.980
QB50P2 29 Jun 01:32:00 01:36:16 61° 292° (WNW) 01:40:28 145.880/145.840
50 SAT 29 Jun 01:36:12 01:38:52 21° 267° (W) 01:41:31 437.505
RS-15 29 Jun 01:36:55 01:49:21 69° 2° (N) 02:01:27 29.354- 29.394
NO-84 29 Jun 01:48:10 01:52:11 39° 196° (SSW) 01:56:17 435.350 FM
EO-79 29 Jun 01:55:21 01:59:27 44° 297° (WNW) 02:03:31 145.935-145.965
DUCHIFAT 1 29 Jun 02:05:05 02:09:08 43° 297° (WNW) 02:13:10 145.980
BEESAT 2 29 Jun 02:08:45 02:12:37 39° 9° (N) 02:16:29 435.950
TIGRISAT 29 Jun 02:10:28 02:11:26 11° 324° (NW) 02:12:25 435.000
NANOSAT C BR1 29 Jun 02:15:42 02:19:35 34° 300° (WNW) 02:23:26 145.865
CUBESAT XI-V 29 Jun 02:18:29 02:21:42 19° 48° (NE) 02:24:54 437.345
FO-29 29 Jun 02:18:38 02:24:00 22° 329° (NNW) 02:29:30 435.910
ITUPSAT 1 29 Jun 02:18:46 02:23:34 69° 67° (ENE) 02:28:23 437.325
O/OREOS (USA 219) 29 Jun 02:21:50 02:24:48 17° 3° (N) 02:27:44 437.305
BEESAT 29 Jun 02:26:21 02:31:09 79° 69° (ENE) 02:35:59 436.000
Gurwin Techsat 1B 29 Jun 02:32:22 02:37:32 46° 99° (E) 02:42:39 435.225
KKS-1 29 Jun 02:36:20 02:39:29 19° 48° (NE) 02:42:41 437.445
BEESAT 3 29 Jun 02:39:32 02:43:34 60° 26° (NNE) 02:47:34 437.485
DX 1 29 Jun 02:46:13 02:47:53 12° 278° (W) 02:49:32 434.975-435.025
Oscar 19 29 Jun 02:50:15 02:55:25 82° 107° (ESE) 03:00:33 437.125/150
UKube-1 29 Jun 02:55:29 02:57:32 13° 276° (W) 02:59:34 .
STARS 29 Jun 02:56:38 02:59:19 16° 45° (NE) 03:02:01 437.465
POLYITAN 1 29 Jun 02:57:25 03:00:24 19° 310° (NW) 03:03:22 437.675
BUGSAT 1 29 Jun 03:00:54 03:04:51 37° 299° (WNW) 03:08:46 437.445
MOZHAYETS 4 29 Jun 03:03:19 03:07:59 82° 254° (WSW) 03:12:39
QB50P2 29 Jun 03:08:47 03:11:18 15° 314° (NW) 03:13:49 145.880/145.840
AO-85 29 Jun 03:09:32 03:13:32 79° 217° (SW) 03:17:42 145.980
YUBILEINY 29 Jun 03:11:28 03:16:36 16° 351° (N) 03:21:46 435.215
AO-7 29 Jun 03:21:12 03:28:18 29° 89° (E) 03:35:22 .
NO-84 29 Jun 03:25:57 03:29:04 19° 217° (SW) 03:32:10 435.350 FM
EO-79 29 Jun 03:32:36 03:34:16 12° 318° (NW) 03:35:57 145.935-145.965
ITAMSAT 1 29 Jun 03:35:32 03:40:03 28° 92° (E) 03:44:33 435.822/435.867
DUCHIFAT 1 29 Jun 03:42:17 03:43:51 12° 318° (NW) 03:45:25 145.980
BEESAT 2 29 Jun 03:46:43 03:50:49 77° 31° (NNE) 03:54:54 435.950
RS-15 29 Jun 03:50:32 04:03:00 88° 35° (NE) 04:14:56 29.354- 29.394
CUBESAT XI-V 29 Jun 03:53:49 03:58:26 73° 70° (ENE) 04:03:02 437.345
ITUPSAT 1 29 Jun 03:57:48 04:01:51 26° 268° (W) 04:05:55 437.325
O/OREOS (USA 219) 29 Jun 04:01:53 04:05:41 26° 29° (NNE) 04:09:27 437.305
FO-29 29 Jun 04:03:01 04:06:33 14° 354° (N) 04:10:10 435.910
BEESAT 29 Jun 04:05:41 04:09:30 23° 270° (W) 04:13:19 436.000
KKS-1 29 Jun 04:11:01 04:15:28 78° 70° (ENE) 04:19:57 437.445
Gurwin Techsat 1B 29 Jun 04:12:29 04:17:33 46° 300° (WNW) 04:22:37 435.225
BEESAT 3 29 Jun 04:17:16 04:21:06 42° 228° (SW) 04:24:53 437.485
STRAND 1 29 Jun 04:20:02 04:22:34 14° 36° (NE) 04:25:05 437.568
Oscar 19 29 Jun 04:30:02 04:34:20 27° 309° (NW) 04:38:36 437.125/150
STARS 29 Jun 04:30:34 04:34:55 60° 66° (ENE) 04:39:18 437.465
BUGSAT 1 29 Jun 04:38:11 04:39:10 11° 320° (NW) 04:40:09 437.445
MOZHAYETS 4 29 Jun 04:42:48 04:45:53 17° 275° (W) 04:48:58
AO-85 29 Jun 04:50:26 04:53:26 20° 238° (WSW) 04:56:33 145.980
DOVE 4 29 Jun 05:02:51 05:05:47 16° 83° (E) 05:08:46 437.250
YUBILEINY 29 Jun 05:11:53 05:18:00 20° 25° (NNE) 05:24:05 435.215
AO-7 29 Jun 05:13:52 05:22:20 83° 113° (ESE) 05:30:45 .
ITAMSAT 1 29 Jun 05:14:46 05:20:01 71° 293° (WNW) 05:25:14 435.822/435.867
BEESAT 2 29 Jun 05:24:45 05:28:20 30° 233° (SW) 05:31:54 435.950
CUBESAT XI-V 29 Jun 05:32:36 05:36:18 23° 271° (W) 05:40:01 437.345
O/OREOS (USA 219) 29 Jun 05:41:15 05:45:47 78° 52° (NE) 05:50:16 437.305
XW-2C 29 Jun 05:42:22 05:43:48 12° 83° (E) 05:45:12 145.795 - 145.815
FO-29 29 Jun 05:44:45 05:48:53 17° 19° (NNE) 05:53:12 435.910
KAITUO 1B 29 Jun 05:47:56 05:48:37 10° 82° (E) 05:49:17 145.475/437.950
KKS-1 29 Jun 05:49:10 05:52:34 21° 271° (W) 05:55:59 437.445
Gurwin Techsat 1B 29 Jun 05:53:20 05:56:25 16° 323° (NW) 05:59:30 435.225
STRAND 1 29 Jun 05:55:48 06:00:35 40° 58° (ENE) 06:05:23 437.568
RS-15 29 Jun 06:03:19 06:14:43 48° 243° (WSW) 06:25:39 29.354- 29.394
STARS 29 Jun 06:07:52 06:11:36 27° 267° (W) 06:15:23 437.465
Oscar 19 29 Jun 06:11:28 06:12:11 10° 332° (NNW) 06:12:54 437.125/150
NUDT-PHONESAT 29 Jun 06:16:44 06:19:22 18° 89° (E) 06:21:59 437.300
DOVE 4 29 Jun 06:39:27 06:44:19 68° 103° (ESE) 06:49:25 437.250
XW-2F 29 Jun 06:43:33 06:47:04 36° 97° (E) 06:50:32 145.980 - 146.000
CUTE-I 29 Jun 06:44:26 06:49:27 37° 95° (E) 06:54:25 437.470
XW-2D 29 Jun 06:50:09 06:53:48 43° 99° (E) 06:57:25 145.860 - 145.880
TIGRISAT 29 Jun 06:54:26 06:55:01 10° 35° (NE) 06:55:37 435.000
ITAMSAT 1 29 Jun 06:54:53 06:58:47 22° 315° (NW) 07:02:41 435.822/435.867
XW-2B 29 Jun 06:59:15 07:02:58 51° 100° (E) 07:06:39 145.730 - 145.750
LilacSat-2 29 Jun 07:03:03 07:06:49 58° 102° (ESE) 07:10:33 437.200
AO-7 29 Jun 07:06:55 07:14:38 43° 317° (NW) 07:22:19 .
YUBILEINY 29 Jun 07:09:33 07:17:53 42° 55° (NE) 07:26:08 435.215
SEEDS 29 Jun 07:12:22 07:14:30 14° 84° (E) 07:16:37 437.485
PRISM 29 Jun 07:13:47 07:14:47 11° 41° (NE) 07:15:47 437.425
HO-68 29 Jun 07:14:26 07:20:30 28° 88° (E) 07:26:31 435.675
XW-2C 29 Jun 07:14:55 07:18:44 72° 104° (ESE) 07:22:29 145.795 - 145.815
KAITUO 1B 29 Jun 07:19:42 07:23:25 64° 103° (ESE) 07:27:06 145.475/437.950
O/OREOS (USA 219) 29 Jun 07:21:12 07:24:46 23° 254° (WSW) 07:28:18 437.305
FO-29 29 Jun 07:25:58 07:31:50 31° 44° (NE) 07:38:13 435.910
UNISAT 6 29 Jun 07:34:36 07:37:37 17° 46° (NE) 07:40:39 437.425
STRAND 1 29 Jun 07:34:40 07:39:42 52° 259° (W) 07:44:47 437.568
CUTE 1.7 + AOD 2 29 Jun 07:36:09 07:39:49 28° 93° (E) 07:43:27 437.475
XW-2A 29 Jun 07:41:10 07:43:49 20° 92° (E) 07:46:26 145.665 - 145.685
NUDT-PHONESAT 29 Jun 07:49:59 07:53:43 69° 289° (WNW) 07:57:22 437.300
AAUSAT CUBESAT 2 29 Jun 07:51:39 07:54:13 16° 86° (E) 07:56:46 437.432
AO-73 29 Jun 08:02:09 08:04:11 13° 81° (E) 08:06:12 145.935
M-CUBED/EXP-1 PRIME 29 Jun 08:04:49 08:07:54 39° 56° (NE) 08:11:03 437.505
RS-15 29 Jun 08:17:26 08:23:48 16° 270° (W) 08:30:02 29.354- 29.394
DOVE 4 29 Jun 08:17:34 08:21:45 30° 303° (WNW) 08:26:06 437.250
XW-2F 29 Jun 08:17:46 08:21:13 34° 298° (WNW) 08:24:39 145.980 - 146.000
ISS 29 Jun 08:23:14 08:23:46 10° 150° (SSE) 08:24:18 437.550
Oscar 11 29 Jun 08:24:21 08:26:52 15° 84° (E) 08:29:25 .
CUTE-I 29 Jun 08:24:29 08:29:45 56° 297° (WNW) 08:35:01 437.470
XW-2D 29 Jun 08:24:34 08:27:54 30° 300° (WNW) 08:31:13 145.860 - 145.880
CUBEBUG 2 29 Jun 08:26:13 08:30:48 45° 98° (E) 08:35:15 437.445
TIGRISAT 29 Jun 08:26:19 08:30:26 31° 57° (ENE) 08:34:35 435.000
XW-2B 29 Jun 08:33:47 08:36:59 26° 301° (WNW) 08:40:10 145.730 - 145.750
LilacSat-2 29 Jun 08:37:45 08:40:51 24° 302° (WNW) 08:43:56 437.200
ZACube-1 29 Jun 08:38:26 08:42:12 26° 90° (E) 08:45:53 437.345
PRISM 29 Jun 08:45:19 08:49:07 40° 62° (ENE) 08:52:57 437.425
SEEDS 29 Jun 08:46:46 08:50:58 74° 104° (ESE) 08:55:07 437.485
XW-2C 29 Jun 08:49:43 08:52:34 21° 305° (NW) 08:55:24 145.795 - 145.815
UWE-3 29 Jun 08:51:54 08:56:25 48° 99° (E) 09:00:47 435.000/436.395/437.385
Tancredo 1 29 Jun 08:52:27 08:54:21 15° 164° (SSE) 08:56:15 437.200
KAITUO 1B 29 Jun 08:54:13 08:57:07 22° 304° (WNW) 08:59:59 145.475/437.950
AO-7 29 Jun 08:59:19 09:05:34 24° 344° (NNW) 09:11:51 .
AIST 2D 29 Jun 09:01:35 09:02:32 11° 48° (NE) 09:03:29 435.315
HO-68 29 Jun 09:01:57 09:09:13 88° 112° (ESE) 09:16:25 435.675
YUBILEINY 29 Jun 09:06:41 09:15:33 77° 262° (W) 09:24:19 435.215
UNISAT 6 29 Jun 09:08:55 09:13:33 61° 67° (ENE) 09:18:13 437.425
FO-29 29 Jun 09:09:22 09:16:01 82° 68° (ENE) 09:23:32 435.910
CUTE 1.7 + AOD 2 29 Jun 09:11:48 09:15:55 52° 293° (WNW) 09:20:00 437.475
XW-2A 29 Jun 09:13:29 09:16:50 52° 292° (WNW) 09:20:09 145.665 - 145.685
POLYITAN 1 29 Jun 09:13:51 09:15:47 13° 43° (NE) 09:17:43 437.675
STRAND 1 29 Jun 09:18:10 09:20:08 12° 281° (W) 09:22:06 437.568
QB50P2 29 Jun 09:24:12 09:26:41 15° 46° (NE) 09:29:11 145.880/145.840
NUDT-PHONESAT 29 Jun 09:25:00 09:26:59 14° 310° (NW) 09:28:57 437.300
AAUSAT CUBESAT 2 29 Jun 09:26:11 09:30:19 87° 106° (ESE) 09:34:27 437.432
AO-73 29 Jun 09:36:53 09:41:22 64° 102° (ESE) 09:45:43 145.935
M-CUBED/EXP-1 PRIME 29 Jun 09:39:41 09:42:31 27° 257° (WSW) 09:45:25 437.505
EO-79 29 Jun 09:46:31 09:49:34 19° 51° (NE) 09:52:39 145.935-145.965
DUCHIFAT 1 29 Jun 09:55:45 09:58:48 20° 51° (NE) 10:01:53 145.980
ISS 29 Jun 09:56:53 09:59:22 20° 170° (S) 10:01:52 437.550
Oscar 11 29 Jun 09:59:25 10:03:46 79° 105° (ESE) 10:08:05 .
TIGRISAT 29 Jun 10:02:16 10:06:54 61° 258° (WSW) 10:11:36 435.000
CUBEBUG 2 29 Jun 10:02:58 10:07:24 40° 299° (WNW) 10:11:44 437.445
CUTE-I 29 Jun 10:05:17 10:08:53 19° 319° (NW) 10:12:29 437.470
NANOSAT C BR1 29 Jun 10:05:59 10:09:24 24° 54° (NE) 10:12:50 145.865
ZACube-1 29 Jun 10:14:24 10:18:53 63° 292° (WNW) 10:23:14 437.345
DELFI C3 29 Jun 10:17:31 10:21:16 41° 98° (E) 10:25:01 145.870
EO-88 29 Jun 10:18:55 10:22:11 30° 95° (E) 10:25:25 145.990 - 145.960
PRISM 29 Jun 10:20:43 10:24:29 35° 263° (W) 10:28:16 437.425
SEEDS 29 Jun 10:23:00 10:26:18 23° 305° (NW) 10:29:34 437.485
Tancredo 1 29 Jun 10:26:56 10:29:12 19° 183° (S) 10:31:29 437.200
UWE-3 29 Jun 10:28:33 10:32:48 36° 300° (WNW) 10:36:56 435.000/436.395/437.385
PCSat 29 Jun 10:28:50 10:30:45 12° 103° (ESE) 10:32:41 145.827
AIST 2D 29 Jun 10:31:33 10:35:01 52° 68° (ENE) 10:38:29 435.315
UNISAT 6 29 Jun 10:46:32 10:50:36 29° 268° (W) 10:54:42 437.425
POLYITAN 1 29 Jun 10:46:33 10:50:40 47° 64° (ENE) 10:54:49 437.675
Gurwin Techsat 1B 29 Jun 10:47:00 10:49:50 15° 36° (NE) 10:52:39 435.225
XW-2A 29 Jun 10:48:10 10:48:51 10° 312° (NW) 10:49:31 145.665 - 145.685
CUTE 1.7 + AOD 2 29 Jun 10:48:54 10:50:56 13° 315° (NW) 10:52:57 437.475
BUGSAT 1 29 Jun 10:49:44 10:52:56 21° 52° (NE) 10:56:09 437.445
AO-7 29 Jun 10:49:52 10:55:55 23° 11° (N) 11:01:58 .
HO-68 29 Jun 10:50:02 10:56:23 35° 315° (NW) 11:02:43 435.675
FO-29 29 Jun 10:56:01 11:01:54 32° 273° (W) 11:08:26 435.910
QB50P2 29 Jun 10:57:31 11:01:44 60° 67° (ENE) 11:06:00 145.880/145.840
Oscar 19 29 Jun 11:00:15 11:03:53 20° 44° (NE) 11:07:30 437.125/150
AAUSAT CUBESAT 2 29 Jun 11:02:19 11:05:20 20° 307° (NW) 11:08:19 437.432
YUBILEINY 29 Jun 11:04:12 11:11:03 26° 287° (WNW) 11:17:52 435.215
AO-73 29 Jun 11:13:31 11:17:19 28° 304° (NW) 11:21:03 145.935
ESTCUBE 1 29 Jun 11:18:37 11:21:50 19° 87° (E) 11:25:02 437.505/2401.250
EO-79 29 Jun 11:20:31 11:24:48 84° 73° (ENE) 11:29:08 145.935-145.965
DUCHIFAT 1 29 Jun 11:29:41 11:33:56 85° 75° (ENE) 11:38:16 145.980
ISS 29 Jun 11:32:39 11:35:09 20° 190° (S) 11:37:39 437.550
Oscar 11 29 Jun 11:36:07 11:39:31 23° 306° (NW) 11:42:53 .
NANOSAT C BR1 29 Jun 11:40:29 11:44:45 74° 254° (WSW) 11:49:04 145.865
CUBEBUG 2 29 Jun 11:40:59 11:42:54 12° 321° (NW) 11:44:48 437.445
TIGRISAT 29 Jun 11:42:22 11:44:35 13° 279° (W) 11:46:47 435.000
ITAMSAT 1 29 Jun 11:49:44 11:50:59 11° 27° (NNE) 11:52:14 435.822/435.867
ZACube-1 29 Jun 11:51:35 11:54:24 16° 313° (NW) 11:57:11 437.345
DELFI C3 29 Jun 11:52:27 11:56:01 33° 298° (WNW) 11:59:35 145.870
EO-88 29 Jun 11:52:31 11:55:58 39° 295° (WNW) 11:59:23 145.990 - 145.960
LO-87 29 Jun 12:01:43 12:05:20 56° 102° (ESE) 12:08:56 145.935 - 145.965
Tancredo 1 29 Jun 12:02:39 12:04:01 12° 203° (SSW) 12:05:21 437.200
AIST 2D 29 Jun 12:05:41 12:08:30 22° 269° (W) 12:11:18 435.315
UWE-3 29 Jun 12:06:43 12:08:06 11° 322° (NW) 12:09:27 435.000/436.395/437.385
PCSat 29 Jun 12:07:45 12:12:55 46° 124° (SE) 12:18:06 145.827
POLYITAN 1 29 Jun 12:22:44 12:26:37 33° 265° (W) 12:30:33 437.675
BUGSAT 1 29 Jun 12:23:37 12:27:50 85° 253° (WSW) 12:32:07 437.445
Gurwin Techsat 1B 29 Jun 12:23:39 12:28:37 41° 58° (ENE) 12:33:36 435.225
SPROUT 29 Jun 12:29:26 12:33:00 24° 91° (E) 12:36:32 437.525
QB50P2 29 Jun 12:34:17 12:37:52 26° 268° (W) 12:41:30 145.880/145.840
Oscar 19 29 Jun 12:37:20 12:42:26 66° 66° (ENE) 12:47:33 437.125/150
HO-68 29 Jun 12:37:48 12:42:20 18° 340° (NNW) 12:46:51 435.675
VELOX 1 29 Jun 12:38:49 12:42:35 26° 92° (E) 12:46:20 145.980
AO-7 29 Jun 12:39:17 12:46:39 37° 37° (NE) 12:54:03 .
DX 1 29 Jun 12:46:16 12:48:28 14° 84° (E) 12:50:41 434.975-435.025
50 SAT 29 Jun 12:49:10 12:51:10 15° 88° (E) 12:53:10 437.505
ESTCUBE 1 29 Jun 12:54:45 12:59:17 87° 286° (WNW) 13:03:46 437.505/2401.250
UKube-1 29 Jun 12:55:31 12:57:07 12° 83° (E) 12:58:42 .
EO-79 29 Jun 12:58:07 13:01:10 19° 273° (W) 13:04:12 145.935-145.965
DUCHIFAT 1 29 Jun 13:07:14 13:10:13 18° 273° (W) 13:13:12 145.980
ISS 29 Jun 13:10:06 13:10:46 10° 209° (SSW) 13:11:25 437.550
NANOSAT C BR1 29 Jun 13:18:57 13:21:14 14° 276° (W) 13:23:34 145.865
ITAMSAT 1 29 Jun 13:24:35 13:28:58 28° 50° (NE) 13:33:21 435.822/435.867
LO-87 29 Jun 13:35:36 13:38:32 23° 302° (WNW) 13:41:29 145.935 - 145.965
SO-50 29 Jun 13:38:01 13:41:27 21° 120° (ESE) 13:44:52 436.795
PCSat 29 Jun 13:50:50 13:56:15 64° 327° (NNW) 14:01:42 145.827
BUGSAT 1 29 Jun 14:01:13 14:03:53 16° 274° (W) 14:06:32 437.445
Gurwin Techsat 1B 29 Jun 14:03:21 14:08:32 51° 260° (W) 14:13:46 435.225
SPROUT 29 Jun 14:05:00 14:09:18 64° 292° (WNW) 14:13:34 437.525
VELOX 1 29 Jun 14:14:59 14:19:24 62° 293° (WNW) 14:23:47 145.980
Oscar 19 29 Jun 14:17:42 14:22:11 30° 267° (W) 14:26:42 437.125/150
BEESAT 29 Jun 14:19:13 14:20:20 11° 79° (E) 14:21:26 436.000
50 SAT 29 Jun 14:21:00 14:24:26 77° 289° (WNW) 14:27:51 437.505
DX 1 29 Jun 14:21:07 14:25:30 69° 104° (ESE) 14:29:52 434.975-435.025
HO-68 29 Jun 14:23:45 14:27:36 15° 7° (N) 14:31:27 435.675
UKube-1 29 Jun 14:29:45 14:34:04 60° 103° (ESE) 14:38:22 .
AO-7 29 Jun 14:30:16 14:38:38 82° 62° (ENE) 14:47:03 .
ESTCUBE 1 29 Jun 14:32:13 14:35:34 21° 309° (NW) 14:38:54 437.505/2401.250
DOVE 4 29 Jun 14:43:38 14:44:41 11° 37° (NE) 14:45:45 437.250
MOZHAYETS 4 29 Jun 14:50:03 14:52:23 14° 82° (E) 14:54:42
CUTE-I 29 Jun 15:00:13 15:02:39 13° 32° (NNE) 15:05:04 437.470
ITAMSAT 1 29 Jun 15:02:45 15:07:59 83° 251° (WSW) 15:13:17 435.822/435.867
SO-50 29 Jun 15:16:48 15:21:20 76° 141° (SE) 15:25:52 436.795
PCSat 29 Jun 15:35:23 15:40:29 38° 352° (N) 15:45:35 145.827
SPROUT 29 Jun 15:41:51 15:44:30 16° 313° (NW) 15:47:08 437.525
CUBESAT XI-V 29 Jun 15:43:38 15:43:59 10° 78° (ENE) 15:44:20 437.345
ITUPSAT 1 29 Jun 15:47:28 15:52:06 44° 99° (E) 15:56:41 437.325
Gurwin Techsat 1B 29 Jun 15:47:44 15:49:47 12° 282° (WNW) 15:51:52 435.225
VELOX 1 29 Jun 15:52:22 15:55:07 16° 314° (NW) 15:57:50 145.980
BEESAT 29 Jun 15:54:36 15:59:18 50° 101° (E) 16:03:57 436.000
50 SAT 29 Jun 15:54:53 15:56:41 14° 309° (NW) 15:58:29 437.505
DX 1 29 Jun 15:57:45 16:01:23 26° 306° (NW) 16:05:01 434.975-435.025
XW-2F 29 Jun 16:01:02 16:03:08 14° 50° (NE) 16:05:13 145.980 - 146.000
UKube-1 29 Jun 16:06:09 16:09:52 28° 304° (NW) 16:13:35 .
XW-2D 29 Jun 16:07:34 16:10:02 17° 52° (NE) 16:12:29 145.860 - 145.880
HO-68 29 Jun 16:07:39 16:13:06 24° 32° (NNE) 16:18:34 435.675
XW-2B 29 Jun 16:16:24 16:19:06 18° 54° (NE) 16:21:47 145.730 - 145.750
DOVE 4 29 Jun 16:17:14 16:21:11 36° 59° (ENE) 16:25:21 437.250
LilacSat-2 29 Jun 16:20:30 16:23:24 21° 55° (NE) 16:26:18 437.200
AO-7 29 Jun 16:24:42 16:32:16 37° 266° (W) 16:39:54 .
MOZHAYETS 4 29 Jun 16:25:52 16:30:28 66° 103° (ESE) 16:35:02
XW-2C 29 Jun 16:31:36 16:34:41 23° 57° (ENE) 16:37:47 145.795 - 145.815
KAITUO 1B 29 Jun 16:35:26 16:38:19 21° 56° (NE) 16:41:11 145.475/437.950
CUTE-I 29 Jun 16:36:33 16:41:22 35° 55° (NE) 16:46:14 437.470
ITAMSAT 1 29 Jun 16:44:30 16:48:17 20° 274° (W) 16:52:06 435.822/435.867
SO-50 29 Jun 16:57:39 17:02:04 49° 345° (NNW) 17:06:29 436.795
CUTE 1.7 + AOD 2 29 Jun 17:03:53 17:06:22 15° 48° (NE) 17:08:50 437.475
NUDT-PHONESAT 29 Jun 17:04:19 17:07:43 33° 62° (ENE) 17:11:07 437.300
